Погода в Дальяне

Турция     36°50′08″N   28°38′49″E
темп.,
°C
ветер,
м/с
пор.,
м/с
влажн.,
%
обл.,
%
осадки,
мм/ч
давл.,
гПа
погр.,
м
3 марта, ср
ср300:00+7с466331 0.0 1020152
03:00+7с566616 0.0 1019178
06:00+6с56689 0.0 1019189
09:00+8с575726 0.0 1020359
12:00+14ссз343825 0.0 1020960
15:00+17зюз363930 0.0 10191683
18:00+16ююв125012 0.0 1019334
21:00+11ссв22556 0.0 102170
4 марта, чт
чт400:00+10с45490 0.0 102194
03:00+8с34500 0.0 102180
06:00+7с33500 0.0 102070
09:00+9с33450 0.0 1020112
12:00+17з22270 0.0 1019530
15:00+16юз44390 0.0 1018415
18:00+15ююз33520 0.0 1017348
21:00+12всв12630 0.0 101971
5 марта, пт
пт500:00+10св22640 0.0 102063
03:00+10с22520 0.0 101950
06:00+9с22480 0.0 101947
09:00+11с12410 0.0 102162
12:00+16юз32421 0.0 1021534
15:00+16юз33460 0.0 1020539
18:00+15юз22530 0.0 1020392
21:00+12вюв116533 0.0 1022200
6 марта, сб
сб600:00+11всв127388 0.0 1023135
03:00+11св226793 0.0 102285
06:00+11всв2267100 0.0 1022171
09:00+13юв1265100 0.0 1023267
12:00+15ююв3365100 0.1 1023935
15:00+16ю336498 0.2 1021869
18:00+15ю226917 0.0 1021513
21:00+12ссв118310 0.0 102263
7 марта, вс
вс700:00+11ссв22850 0.0 102257
03:00+11с22790 0.0 102154
06:00+10с22690 0.0 102151
09:00+12с22550 0.0 102191
12:00+17зюз22420 0.0 1020682
15:00+18юз45520 0.0 1018705
18:00+18зюз45550 0.0 1016408
21:00+14с22700 0.0 101779